�������l�o���
Date,Time,MP-1(��Sv/h),MP-2(��Sv/h),MP-3(��Sv/h),MP-4(��Sv/h),MP-5(��Sv/h),MP-6(��Sv/h),MP-7(��Sv/h),MP-8(��Sv/h),����,����(m/s),���J
2022/06/09,00:00,0.541,0.790,0.506,0.973,0.669,0.333,0.572,0.548,�k,4.9,��
2022/06/09,00:10,0.542,0.789,0.507,0.971,0.668,0.334,0.572,0.546,�k,4.8,��
2022/06/09,00:20,0.542,0.791,0.506,0.971,0.668,0.333,0.573,0.546,�k,4.3,��
2022/06/09,00:30,0.541,0.791,0.508,0.972,0.668,0.333,0.572,0.547,�k,4.2,��
2022/06/09,00:40,0.543,0.793,0.505,0.970,0.669,0.335,0.572,0.547,�k,4.0,��
2022/06/09,00:50,0.541,0.792,0.506,0.969,0.669,0.334,0.573,0.548,�k�k��,3.6,��
2022/06/09,01:00,0.542,0.791,0.507,0.971,0.669,0.336,0.573,0.546,�k�k��,2.8,��
2022/06/09,01:10,0.543,0.792,0.507,0.970,0.668,0.334,0.574,0.546,�k��,3.8,��
2022/06/09,01:20,0.543,0.790,0.507,0.971,0.669,0.336,0.573,0.547,�k��,3.5,��
2022/06/09,01:30,0.542,0.792,0.506,0.971,0.670,0.334,0.572,0.547,�k�k��,3.7,��
2022/06/09,01:40,0.543,0.789,0.506,0.972,0.667,0.334,0.572,0.546,�k��,4.1,��
2022/06/09,01:50,0.542,0.793,0.507,0.971,0.670,0.334,0.572,0.546,�k�k��,4.9,�L
2022/06/09,02:00,0.541,0.791,0.507,0.972,0.672,0.334,0.573,0.547,�k�k��,4.5,�L
2022/06/09,02:10,0.542,0.793,0.507,0.972,0.667,0.333,0.572,0.545,�k�k��,4.9,�L
2022/06/09,02:20,0.542,0.790,0.507,0.973,0.671,0.335,0.573,0.547,�k�k��,3.5,�L
2022/06/09,02:30,0.544,0.793,0.507,0.971,0.670,0.335,0.572,0.546,�k�k��,4.2,�L
2022/06/09,02:40,0.542,0.793,0.508,0.973,0.670,0.336,0.573,0.547,�k�k��,3.4,��
2022/06/09,02:50,0.542,0.793,0.507,0.972,0.669,0.335,0.572,0.548,�k,3.8,��
2022/06/09,03:00,0.542,0.792,0.507,0.972,0.671,0.335,0.573,0.546,�k�k��,4.5,��
2022/06/09,03:10,0.544,0.793,0.507,0.973,0.672,0.334,0.573,0.547,�k�k��,4.9,��
2022/06/09,03:20,0.542,0.793,0.507,0.972,0.672,0.335,0.573,0.547,�k�k��,5.0,��
2022/06/09,03:30,0.542,0.794,0.507,0.971,0.672,0.334,0.572,0.547,�k�k��,5.1,�L
2022/06/09,03:40,0.543,0.792,0.507,0.973,0.669,0.336,0.572,0.547,�k�k��,5.0,�L
2022/06/09,03:50,0.543,0.792,0.509,0.975,0.670,0.334,0.574,0.547,�k�k��,4.7,�L
2022/06/09,04:00,0.542,0.794,0.506,0.972,0.672,0.335,0.574,0.547,�k�k��,4.8,�L
2022/06/09,04:10,0.544,0.794,0.508,0.973,0.672,0.336,0.573,0.547,�k�k��,4.9,�L
2022/06/09,04:20,0.543,0.792,0.507,0.974,0.671,0.335,0.573,0.548,�k,5.3,�L
2022/06/09,04:30,0.543,0.793,0.508,0.971,0.669,0.336,0.573,0.548,�k�k��,5.1,�L
2022/06/09,04:40,0.543,0.794,0.507,0.974,0.672,0.336,0.573,0.548,�k�k��,5.4,�L
2022/06/09,04:50,0.544,0.794,0.508,0.973,0.669,0.335,0.573,0.548,�k�k��,5.0,�L
2022/06/09,05:00,0.543,0.794,0.507,0.974,0.671,0.335,0.572,0.546,�k�k��,4.6,�L
2022/06/09,05:10,0.544,0.793,0.507,0.974,0.671,0.336,0.572,0.547,�k�k��,4.9,�L
2022/06/09,05:20,0.541,0.790,0.507,0.975,0.669,0.337,0.572,0.546,�k�k��,4.3,�L
2022/06/09,05:30,0.541,0.791,0.508,0.971,0.670,0.335,0.572,0.547,�k�k��,4.6,�L
2022/06/09,05:40,0.543,0.793,0.507,0.972,0.670,0.336,0.572,0.547,�k�k��,5.0,�L
2022/06/09,05:50,0.544,0.791,0.508,0.973,0.671,0.335,0.570,0.546,�k�k��,4.4,�L
2022/06/09,06:00,0.542,0.791,0.506,0.972,0.669,0.337,0.573,0.548,�k,4.1,�L
2022/06/09,06:10,0.541,0.792,0.505,0.973,0.669,0.336,0.573,0.546,�k�k��,3.6,�L
2022/06/09,06:20,0.543,0.790,0.508,0.971,0.668,0.335,0.572,0.545,�k�k��,3.4,�L
2022/06/09,06:30,0.540,0.786,0.506,0.970,0.667,0.334,0.572,0.546,�k�k��,3.3,�L
2022/06/09,06:40,0.540,0.787,0.506,0.971,0.669,0.335,0.573,0.546,�k�k��,3.4,�L
2022/06/09,06:50,0.541,0.788,0.507,0.970,0.668,0.335,0.572,0.546,�k�k��,3.4,�L
2022/06/09,07:00,0.541,0.787,0.505,0.970,0.668,0.335,0.570,0.546,�k��,3.2,�L
2022/06/09,07:10,0.539,0.788,0.508,0.971,0.669,0.335,0.572,0.546,�k�k��,2.8,�L
2022/06/09,07:20,0.542,0.786,0.508,0.972,0.669,0.337,0.571,0.544,�k�k��,1.9,�L
2022/06/09,07:30,0.539,0.786,0.506,0.970,0.667,0.336,0.571,0.545,�k�k��,2.3,�L
2022/06/09,07:40,0.541,0.783,0.506,0.969,0.667,0.336,0.572,0.545,�k,1.9,�L
2022/06/09,07:50,0.541,0.786,0.507,0.968,0.665,0.334,0.569,0.544,�k,2.6,�L
2022/06/09,08:00,0.541,0.785,0.507,0.969,0.666,0.334,0.570,0.544,�k�k��,2.3,�L
2022/06/09,08:10,0.541,0.783,0.506,0.967,0.666,0.334,0.571,0.544,�k,2.3,�L
2022/06/09,08:20,0.539,0.785,0.505,0.968,0.668,0.333,0.569,0.546,�k,2.8,�L
2022/06/09,08:30,0.540,0.782,0.506,0.967,0.667,0.334,0.571,0.545,�k,2.8,�L
2022/06/09,08:40,0.540,0.783,0.506,0.969,0.665,0.335,0.571,0.543,�k,3.0,�L
2022/06/09,08:50,0.540,0.782,0.502,0.968,0.666,0.335,0.570,0.546,�k�k��,2.3,�L
2022/06/09,09:00,0.539,0.780,0.504,0.970,0.665,0.334,0.571,0.545,�k,2.3,�L
2022/06/09,09:10,0.538,0.777,0.505,0.966,0.664,0.335,0.570,0.545,�k,3.1,�L
2022/06/09,09:20,0.538,0.778,0.505,0.964,0.663,0.333,0.571,0.544,�k,3.2,�L
2022/06/09,09:30,0.538,0.777,0.506,0.964,0.661,0.334,0.570,0.545,�k,3.9,�L
2022/06/09,09:40,0.535,0.774,0.503,0.962,0.658,0.333,0.568,0.542,�k�k��,3.9,�L
2022/06/09,09:50,0.532,0.770,0.502,0.957,0.654,0.332,0.567,0.540,�k,3.1,�L
2022/06/09,10:00,0.531,0.769,0.502,0.953,0.654,0.330,0.566,0.538,�k,3.1,�L
2022/06/09,10:10,0.531,0.772,0.502,0.955,0.656,0.329,0.567,0.539,�k�k��,2.9,�L
2022/06/09,10:20,0.533,0.774,0.503,0.956,0.655,0.332,0.567,0.539,�k�k��,3.7,�L
2022/06/09,10:30,0.533,0.774,0.502,0.955,0.655,0.331,0.566,0.539,�k�k��,3.8,�L
2022/06/09,10:40,0.535,0.775,0.503,0.954,0.656,0.331,0.566,0.538,�k�k��,4.3,�L
2022/06/09,10:50,0.535,0.777,0.505,0.956,0.659,0.332,0.567,0.539,�k�k��,3.7,�L
2022/06/09,11:00,0.536,0.778,0.504,0.957,0.658,0.333,0.567,0.540,�k�k��,3.0,�L
2022/06/09,11:10,0.537,0.778,0.504,0.957,0.659,0.332,0.568,0.540,�k,3.9,�L
2022/06/09,11:20,0.537,0.778,0.504,0.959,0.660,0.332,0.568,0.541,�k,4.0,�L
2022/06/09,11:30,0.537,0.780,0.505,0.958,0.661,0.334,0.568,0.540,�k,3.4,�L
2022/06/09,11:40,0.537,0.780,0.506,0.962,0.659,0.332,0.569,0.541,�k�k��,3.3,�L
2022/06/09,11:50,0.537,0.783,0.506,0.961,0.659,0.334,0.567,0.542,�k�k��,3.9,�L
2022/06/09,12:00,0.536,0.782,0.505,0.961,0.662,0.331,0.570,0.542,�k�k��,4.0,�L
2022/06/09,12:10,0.538,0.784,0.505,0.960,0.663,0.333,0.570,0.540,�k�k��,4.5,�L
2022/06/09,12:20,0.538,0.784,0.505,0.963,0.662,0.332,0.569,0.540,�k�k��,4.3,�L
2022/06/09,12:30,0.536,0.785,0.505,0.962,0.661,0.335,0.570,0.541,�k�k��,4.3,��
2022/06/09,12:40,0.541,0.784,0.506,0.963,0.663,0.332,0.570,0.541,�k�k��,4.1,��
2022/06/09,12:50,0.538,0.784,0.505,0.963,0.662,0.332,0.569,0.543,�k,3.7,��
2022/06/09,13:00,0.539,0.784,0.505,0.963,0.663,0.333,0.570,0.542,�k,3.7,�L
2022/06/09,13:10,0.540,0.784,0.503,0.964,0.663,0.331,0.571,0.541,�k�k��,3.8,�L
2022/06/09,13:20,0.538,0.783,0.503,0.964,0.663,0.331,0.571,0.544,�k�k��,4.0,�L
2022/06/09,13:30,0.539,0.786,0.506,0.965,0.664,0.332,0.569,0.542,�k�k��,4.1,�L
2022/06/09,13:40,0.540,0.784,0.504,0.965,0.666,0.332,0.571,0.543,�k�k��,4.4,�L
2022/06/09,13:50,0.540,0.783,0.505,0.967,0.665,0.335,0.571,0.543,�k�k��,3.5,�L
2022/06/09,14:00,0.540,0.787,0.504,0.965,0.666,0.333,0.571,0.544,�k�k��,3.6,�L
2022/06/09,14:10,0.541,0.787,0.507,0.966,0.666,0.334,0.573,0.542,�k�k��,3.3,�L
2022/06/09,14:20,0.540,0.789,0.506,0.966,0.668,0.333,0.573,0.543,�k�k��,3.1,��
2022/06/09,14:30,0.540,0.785,0.507,0.965,0.668,0.334,0.571,0.544,�k�k��,3.3,��
2022/06/09,14:40,0.538,0.787,0.507,0.967,0.668,0.334,0.572,0.543,���k��,3.1,��
2022/06/09,14:50,0.539,0.788,0.505,0.966,0.667,0.333,0.571,0.544,�k��,2.9,��
2022/06/09,15:00,0.539,0.787,0.506,0.966,0.667,0.334,0.571,0.543,���k��,2.6,�L
2022/06/09,15:10,0.541,0.789,0.505,0.964,0.666,0.334,0.572,0.544,�k��,2.5,�L
2022/06/09,15:20,0.541,0.790,0.506,0.967,0.669,0.333,0.572,0.545,�k��,2.6,�L
2022/06/09,15:30,0.540,0.789,0.505,0.967,0.668,0.334,0.573,0.544,���k��,2.5,�L
2022/06/09,15:40,0.541,0.791,0.507,0.967,0.669,0.334,0.572,0.544,�k��,2.0,��
2022/06/09,15:50,0.540,0.790,0.506,0.968,0.668,0.334,0.571,0.545,�k�k��,1.7,��
2022/06/09,16:00,0.541,0.792,0.507,0.968,0.668,0.333,0.573,0.543,�k��,2.9,��
2022/06/09,16:10,0.541,0.793,0.508,0.968,0.667,0.334,0.572,0.546,�k�k��,2.8,��
2022/06/09,16:20,0.541,0.792,0.507,0.968,0.669,0.332,0.574,0.545,�k��,2.3,��
2022/06/09,16:30,0.541,0.794,0.507,0.970,0.669,0.332,0.573,0.545,�k�k��,2.5,��
2022/06/09,16:40,0.541,0.794,0.505,0.968,0.668,0.333,0.572,0.546,�k�k��,2.6,��
2022/06/09,16:50,0.541,0.794,0.507,0.970,0.669,0.334,0.575,0.546,�k�k��,2.5,��
2022/06/09,17:00,0.542,0.793,0.507,0.971,0.669,0.335,0.572,0.544,�k�k��,2.0,��
2022/06/09,17:10,0.544,0.793,0.507,0.971,0.669,0.333,0.572,0.544,�k�k��,2.0,��
2022/06/09,17:20,0.544,0.793,0.508,0.971,0.670,0.334,0.575,0.545,�k�k��,2.6,��
2022/06/09,17:30,0.545,0.796,0.507,0.973,0.671,0.334,0.574,0.544,�k�k��,2.8,��
2022/06/09,17:40,0.544,0.795,0.508,0.972,0.671,0.333,0.573,0.546,�k�k��,2.3,��
2022/06/09,17:50,0.544,0.797,0.509,0.974,0.670,0.334,0.575,0.544,�k,2.2,��
2022/06/09,18:00,0.544,0.794,0.509,0.971,0.671,0.335,0.574,0.544,�k,2.2,��
2022/06/09,18:10,0.544,0.796,0.511,0.971,0.672,0.334,0.574,0.545,�k,1.9,��
2022/06/09,18:20,0.546,0.796,0.512,0.972,0.674,0.335,0.573,0.547,�k,1.7,�L
2022/06/09,18:30,0.545,0.798,0.511,0.972,0.673,0.335,0.573,0.546,�k,1.7,��
2022/06/09,18:40,0.546,0.798,0.511,0.971,0.674,0.336,0.575,0.548,�k�k��,1.1,��
2022/06/09,18:50,0.547,0.797,0.511,0.973,0.674,0.335,0.574,0.545,�k,0.9,��
2022/06/09,19:00,0.544,0.796,0.512,0.973,0.672,0.335,0.575,0.545,-,CALM,��
2022/06/09,19:10,0.546,0.798,0.510,0.971,0.674,0.336,0.573,0.547,���쐼,0.8,��
2022/06/09,19:20,0.546,0.800,0.511,0.972,0.674,0.335,0.573,0.548,��,0.6,��
2022/06/09,19:30,0.547,0.798,0.511,0.971,0.674,0.334,0.575,0.550,-,CALM,��
2022/06/09,19:40,0.546,0.798,0.511,0.973,0.674,0.336,0.574,0.547,��,0.9,��
2022/06/09,19:50,0.547,0.799,0.510,0.971,0.675,0.335,0.574,0.548,��,1.7,��
2022/06/09,20:00,0.546,0.797,0.510,0.972,0.675,0.336,0.576,0.546,���k��,1.7,��
2022/06/09,20:10,0.547,0.798,0.510,0.972,0.676,0.336,0.574,0.548,���k��,2.6,��
2022/06/09,20:20,0.548,0.800,0.511,0.972,0.676,0.334,0.574,0.547,���k��,2.0,��
2022/06/09,20:30,0.548,0.799,0.510,0.974,0.675,0.336,0.575,0.548,��,2.0,��
2022/06/09,20:40,0.546,0.799,0.509,0.974,0.676,0.336,0.575,0.547,���k��,2.0,��
2022/06/09,20:50,0.547,0.800,0.509,0.974,0.675,0.335,0.575,0.548,���k��,2.0,��
2022/06/09,21:00,0.548,0.798,0.509,0.972,0.674,0.336,0.574,0.549,��,1.9,��
2022/06/09,21:10,0.545,0.799,0.511,0.973,0.675,0.335,0.575,0.547,��,1.7,��
2022/06/09,21:20,0.547,0.800,0.512,0.973,0.675,0.337,0.577,0.548,��,1.5,��
2022/06/09,21:30,0.547,0.800,0.512,0.973,0.676,0.336,0.575,0.546,���k��,1.5,��
2022/06/09,21:40,0.548,0.800,0.513,0.971,0.677,0.335,0.576,0.546,��,2.3,��
2022/06/09,21:50,0.548,0.798,0.512,0.972,0.676,0.336,0.576,0.549,���쐼,1.7,��
2022/06/09,22:00,0.548,0.799,0.511,0.974,0.676,0.337,0.577,0.548,���쐼,1.2,��
2022/06/09,22:10,0.548,0.801,0.511,0.973,0.677,0.336,0.576,0.548,��,1.5,��
2022/06/09,22:20,0.547,0.801,0.511,0.976,0.677,0.336,0.575,0.547,���쐼,0.9,��
2022/06/09,22:30,0.548,0.799,0.512,0.973,0.677,0.336,0.575,0.547,-,CALM,��
2022/06/09,22:40,0.548,0.798,0.512,0.975,0.677,0.336,0.575,0.546,��,0.8,��
2022/06/09,22:50,0.547,0.798,0.512,0.971,0.677,0.337,0.576,0.548,-,CALM,��
2022/06/09,23:00,0.548,0.801,0.511,0.973,0.679,0.336,0.576,0.547,���쐼,0.9,��
2022/06/09,23:10,0.547,0.801,0.512,0.975,0.678,0.335,0.576,0.548,�쐼,0.8,��
2022/06/09,23:20,0.548,0.800,0.512,0.975,0.677,0.337,0.576,0.547,��쐼,0.8,��
2022/06/09,23:30,0.546,0.800,0.511,0.975,0.676,0.337,0.576,0.548,��쐼,2.3,��
2022/06/09,23:40,0.548,0.800,0.511,0.975,0.679,0.337,0.576,0.548,��,2.2,��
2022/06/09,23:50,0.548,0.799,0.513,0.975,0.677,0.337,0.576,0.548,��,1.2,��
